CZ-6A DEB, 54553

Orbit data source: Space-Track

CZ-6A DEB, 54553 is space debris in SSO originally from a launch on Fri, 11 Nov 2022 UTC launched from the Taiyaun Space Center, China (TSC). Debris objects in space refer to the collection of defunct objects orbiting the Earth. Examples of debris include non-operational satellites, rocket bodies, and fragments generated from explosions, collisions, or faulty payload assembly.

Loading next visibility...
Identifier
54553, 2022-151LD
Orbit
SSO
Country
Flag of CNCN / PRC
Related business
Manufacturer
SAST
Mission
Spacecraft
Bus & Motor
Unknown
Mass
Unknown
Launch date (UTC)
2022-11-11 (4 years ago)
Launch vehicle
Unknown
Launch site
Taiyaun Space Center, China (TSC)
Object type
Payload
Rocket body
Debris
Shape & HBR
Unknown shape, 0.1 m
Radar Cross Section
Small (<0.1 m²)

Expand to show TLE details & history
Last TLE update: 22 hours ago

TLE from 22 hours ago
0 CZ-6A DEB
1 54553U 22151LD  26235.70549620  .00063787  00000-0  39902-2 0  9990
2 54553  98.6378 327.5837 0026045  17.5458 342.6661 15.08865750129631
Epoch: 2026-08-23T16:55Z
TLE epoch observation values (Epoch: 2026-08-23T16:55:54.871Z)
Latitude
-0.00005°
Longitude
101.60736°
Altitude
525.503 km
Speed
7.61 km/s
True Right ascension
21h 50m 20s
True Declination
0° 00' 00"
Sunlit
Object was in full shadow at epoch
Visualization orbit readout
Latitude
Unknown
Longitude
Unknown
Altitude
Unknown
Speed
Unknown
Apparent Right ascension
Unknown
Apparent Declination
Unknown
Sunlit
N/A
Visualization observer readout
Local Sidereal Time
05:48:08
Azimuth
Unknown
Elevation
Unknown
Doppler factor
Unknown
Orbital elements
Apogee altitude
554.712 km
Perigee altitude
518.692 km
Semi-major axis
6,914.839 km
Eccentricity
0.0026
Inclination
98.6378°
RAAN
327.5837°
Arg. of periapsis
17.5458°
True anomaly
342.5769°
Mean anomaly
342.6661°
Eccentric anomaly
342.62153°
Mean motion
3.77459 °/min
Orbital period
95.37 mins
BSTAR
0.0039902
Loading maneuver chart data...
Computing Atmospheric mass density...
Loading historical data...
Loading historical data...
Loading historical data...
Loading historical data...
Loading historical data...
Loading historical data...
Loading historical data...

Documentation

Showing up to 5 results
|